User: anonymous   Login
Location: Oberwangen
(47.4286°N, 8.9679°E)
Time: 09:53:29
(UTC+00:00)
Language:

NOAA 16 DEB - Orbit

View from above orbital plane
View from above orbital plane
View from above satellite
View from above satellite

Ground track
Ground track

The orbit data is extracted from the following two-line orbital elements,

1 41717U 00055PX  22227.47877066  .00002293  00000-0  10648-2 0  9997
2 41717  98.8119 322.2696 0020807 261.9585  97.9231 14.21540526328375
Epoch (UTC): 15 August 2022 11:29:25
Eccentricity: 0.0020807
inclination: 98.8119°
perigee height: 805 km
apogee height: 835 km
right ascension of ascending node: 322.2696°
argument of perigee: 261.9585°
revolutions per day: 14.21540526
mean anomaly at epoch: 97.9231°
orbit number at epoch: 32837

The dashed part of the orbit path shows where the satellite is in the earth's shadow,  

DLR